This is the latest recevied weather packets stored in our database for station/object K8JMX-13. If no packets are shown the sender has not sent any weather packets the latest 10 day(s).
| Time | Temp. | Humidity | Pressure | Rain* | Wind** | Luminosity | Snow |
|---|---|---|---|---|---|---|---|
| 1777456995 | 11.67° C | 91% | 1009.4 hPa | 0 mm | - | 0 W/m² | - |
| 1777456691 | 11.67° C | 91% | 1009.6 hPa | 0 mm | - | 0 W/m² | - |
| 1777456386 | 11.67° C | 91% | 1009.6 hPa | 0 mm | - | 0 W/m² | - |
| 1777456083 | 12.22° C | 90% | 1009.7 hPa | 0 mm | - | 0 W/m² | - |
| 1777455779 | 12.22° C | 90% | 1009.3 hPa | 1.78 mm | - | 0 W/m² | - |
| 1777455476 | 12.22° C | 90% | 1009.5 hPa | 1.78 mm | - | 0 W/m² | - |
| 1777455172 | 12.22° C | 90% | 1009.4 hPa | 1.27 mm | - | 0 W/m² | - |
| 1777454869 | 12.22° C | 90% | 1009.6 hPa | 3.05 mm | - | 0 W/m² | - |
| 1777454565 | 12.22° C | 90% | 1010.1 hPa | 4.83 mm | - | 0 W/m² | - |
| 1777454261 | 12.22° C | 89% | 1010.6 hPa | 6.1 mm | - | 0 W/m² | - |
| 1777453959 | 12.22° C | 89% | 1010.8 hPa | 7.87 mm | - | 0 W/m² | - |
| 1777453655 | 12.22° C | 89% | 1010.9 hPa | 9.65 mm | - | 0 W/m² | - |
| 1777453352 | 12.22° C | 89% | 1010.8 hPa | 4.83 mm | - | 0 W/m² | - |
| 1777453049 | 12.22° C | 88% | 1010.9 hPa | 1.27 mm | - | 0 W/m² | - |
| 1777452746 | 12.22° C | 88% | 1010.7 hPa | 3.05 mm | - | 0 W/m² | - |
| 1777452442 | 12.22° C | 87% | 1010.5 hPa | 3.05 mm | - | 0 W/m² | - |
| 1777452138 | 12.22° C | 87% | 1010 hPa | 3.05 mm | - | 0 W/m² | - |
| 1777451828 | 12.22° C | 86% | 1010.2 hPa | 4.83 mm | - | 0 W/m² | - |
| 1777451524 | 12.78° C | 86% | 1010.7 hPa | 4.83 mm | - | 0 W/m² | - |
| 1777451220 | 12.78° C | 85% | 1010.9 hPa | 3.56 mm | - | 0 W/m² | - |
| 1777450916 | 12.78° C | 84% | 1010.9 hPa | 3.05 mm | - | 0 W/m² | - |
| 1777450612 | 13.33° C | 82% | 1010.9 hPa | 3.05 mm | - | 0 W/m² | - |
| 1777450308 | 13.33° C | 81% | 1011.2 hPa | 3.05 mm | - | 0 W/m² | - |
| 1777450004 | 13.89° C | 79% | 1011.2 hPa | 1.27 mm | - | 0 W/m² | - |
| 1777449701 | 13.89° C | 78% | 1011.1 hPa | 0 mm | - | 0 W/m² | - |
* Rain latest hour (hover to see other rain measurements)
** Current wind speed in m/s (hover to see current wind gust speed)